[[{"header":{"parameterUnit":"m.s-1","parameterCategory":1,"la1":30.2991,"la2":30.254,"lo1":-89.0895,"lo2":-89.0444,"dx":0.0017,"dy":0.0017,"nx":28,"ny":28,"refTime":"2022-12-12T03:00:00:Z","depth":0,"parameterNumber":2,"parameterNumberName":"U-component_of_WINDS"},"data":[0,0,0,0,0,0,0,0,0,0,0,0,0,0,0,0,0,0,0,0,0,0,0,0,0,0,0,0,0,0,0,0,0,0,0,0,0,0,0,0,0,0,0,0,0,0,0,0,0,0,0,0,0,0,0,0,0,0,-3.598,-3.5981,0,-3.6062,-3.6063,-3.6064,-3.609,-3.6089,-3.6089,-3.6089,-3.6171,-3.6173,-3.6176,0,0,0,0,0,0,0,0,0,0,0,0,0,-3.5842,-3.5844,-3.598,-3.5981,-3.5982,-3.6062,-3.6063,-3.6064,-3.609,-3.6089,-3.6089,-3.6088,-3.617,-3.6173,-3.6176,0,0,0,0,0,0,0,0,0,0,0,0,0,-3.591,-3.5845,-3.598,-3.6004,-3.6007,-3.6062,-3.6063,-3.6064,-3.609,-3.6089,-3.6089,-3.6088,-3.6169,-3.6173,-3.6177,-3.6212,0,0,-3.6188,-3.619,0,0,0,0,0,0,0,0,-3.5906,-3.5915,-3.6,-3.6003,-3.6006,-3.6065,-3.6045,-3.6114,-3.609,-3.6059,-3.6089,-3.6088,-3.6136,-3.6143,-3.6159,-3.6216,-3.6219,-3.6189,-3.6191,-3.6193,-3.6194,0,0,0,0,0,0,0,-3.5902,-3.5912,-3.6012,-3.6001,-3.6005,-3.601,-3.6019,-3.6058,-3.6099,-3.6061,-3.6063,-3.6073,-3.6138,-3.6155,-3.6161,-3.622,-3.6189,-3.6192,-3.6194,-3.6196,-3.6307,-3.6307,0,0,0,0,0,0,-3.5893,-3.5908,-3.601,-3.6015,-3.5954,-3.6013,-3.6023,-3.6047,-3.6099,-3.6107,-3.6073,-3.6074,-3.6149,-3.6157,-3.6164,-3.6207,-3.6193,-3.6196,-3.6198,-3.6306,-3.6307,-3.6308,0,0,0,0,0,0,-3.589,-3.5902,-3.6006,-3.5962,-3.5976,-3.6016,-3.6042,-3.6049,-3.6067,-3.6108,-3.6115,-3.6084,-3.6149,-3.6159,-3.6199,-3.6211,-3.6198,-3.6201,-3.6305,-3.6306,-3.6307,-3.6294,0,0,0,0,0,0,-3.5886,-3.5901,-3.5915,-3.5962,-3.5978,-3.6041,-3.6043,-3.6051,-3.6073,-3.6075,-3.612,-3.6127,-3.6149,-3.6193,-3.6203,-3.6216,-3.6204,-3.6305,-3.6306,-3.6307,-3.6294,-3.6295,-3.6296,0,0,0,0,0,-3.5881,-3.5909,-3.5916,-3.5928,-3.5997,-3.6042,-3.6051,-3.6076,-3.6074,-3.6088,-3.6115,-3.6126,-3.6208,-3.6197,-3.6208,-3.6222,-3.6304,-3.6306,-3.6307,-3.6294,-3.6295,-3.6296,0,0,0,0,0,0,-3.5862,-3.5915,-3.5924,-3.5968,-3.6,-3.6046,-3.6065,-3.6077,-3.611,-3.611,-3.6139,-3.6149,-3.6187,-3.6209,-3.6196,-3.6258,-3.6256,-3.626,-3.6242,-3.6244,-3.6244,-3.6238,-3.6208,0,0,0,0,0,-3.5863,-3.5896,-3.594,-3.5974,-3.599,-3.6025,-3.6045,-3.6062,-3.6096,-3.6109,-3.6139,-3.6171,-3.6204,-3.6225,-3.6258,-3.6297,-3.6306,-3.6312,-3.6313,-3.6313,-3.6316,-3.6336,-3.6339,-3.6313,-3.6313,-3.6313,0,0,-3.5866,-3.5899,-3.5917,-3.5971,-3.5998,-3.603,-3.6036,-3.607,-3.6093,-3.6115,-3.6154,-3.6177,-3.6214,-3.6254,-3.6273,-3.6273,-3.6325,-3.6315,-3.6315,-3.6318,-3.6338,-3.634,-3.6343,-3.6314,-3.6313,-3.6313,0,0,-3.5886,-3.5915,-3.5946,-3.5972,-3.6013,-3.6035,-3.6042,-3.6086,-3.6102,-3.6142,-3.6158,-3.6186,-3.6242,-3.6268,-3.6288,-3.6315,-3.6326,-3.6325,-3.6329,-3.6349,-3.6351,-3.6353,-3.6361,-3.6364,-3.6328,-3.6328,-3.6328,0,-3.5884,-3.5933,-3.596,-3.5992,-3.6015,-3.6035,-3.6066,-3.609,-3.6139,-3.6153,-3.6153,-3.6223,-3.625,-3.6294,-3.6301,-3.6317,-3.6325,-3.632,-3.6348,-3.6351,-3.6353,-3.6361,-3.6364,-3.6327,-3.6327,-3.6327,-3.6327,0,-3.5927,-3.5961,-3.5981,-3.6027,-3.6052,-3.6083,-3.6113,-3.6135,-3.6149,-3.617,-3.621,-3.6243,-3.6281,-3.6293,-3.6308,-3.6339,-3.6338,-3.6343,-3.6342,-3.6354,-3.6362,-3.6366,-3.6327,-3.6327,-3.6327,-3.6327,0,0,-3.5939,-3.5999,-3.6005,-3.6026,-3.6071,-3.6097,-3.6128,-3.6166,-3.6183,-3.6216,-3.6241,-3.6288,-3.6291,-3.6314,-3.6331,-3.6349,-3.6366,-3.6351,-3.6352,-3.6352,-3.6401,-3.6397,-3.64,-3.6373,-3.6374,-3.6374,-3.6398,0,-3.5964,-3.6022,-3.6046,-3.6092,-3.6122,-3.6141,-3.6168,-3.6197,-3.6218,-3.6246,-3.6269,-3.63,-3.6304,-3.6318,-3.6336,-3.636,-3.6376,-3.6359,-3.6396,-3.6397,-3.6386,-3.6405,-3.6401,-3.6422,-3.6401,-3.6402,-3.6402,0,-3.6002,-3.6034,-3.6083,-3.6122,-3.6136,-3.616,-3.6196,-3.6222,-3.6256,-3.6269,-3.6294,-3.631,-3.6341,-3.6338,-3.6381,-3.6368,-3.6385,-3.6399,-3.64,-3.6405,-3.64,-3.6409,-3.6429,-3.6432,-3.6408,-3.6407,-3.6407,0,-3.6003,-3.6059,-3.6095,-3.6112,-3.616,-3.6176,-3.6196,-3.6229,-3.625,-3.628,-3.6294,-3.6328,-3.6346,-3.6371,-3.6395,-3.639,-3.6435,-3.6434,-3.6446,-3.6445,-3.6455,-3.6454,-3.6477,-3.6466,-3.6466,-3.6466,-3.6466,0,-3.6029,-3.6057,-3.6097,-3.6119,-3.6151,-3.6177,-3.6208,-3.6229,-3.6258,-3.6283,-3.6302,-3.6325,-3.6355,-3.6382,-3.64,-3.6432,-3.6441,-3.6451,-3.6456,-3.645,-3.6448,-3.6461,-3.646,-3.6467,-3.6467,-3.6467,-3.6466,0,-3.6036,-3.6064,-3.6104,-3.6146,-3.6156,-3.6178,-3.6213,-3.6234,-3.6255,-3.6287,-3.6296,-3.6329,-3.6361,-3.6387,-3.6429,-3.6441,-3.6474,-3.648,-3.6463,-3.6465,-3.6476,-3.6474,-3.6507,-3.6513,-3.6499,-3.6499,-3.6499,0,-3.605,-3.6073,-3.6116,-3.6135,-3.6155,-3.6185,-3.6206,-3.6232,-3.6253,-3.6291,-3.6308,-3.6341,-3.6369,-3.6419,-3.6446,-3.6478,-3.6484,-3.6493,-3.6488,-3.6481,-3.6482,-3.6481,-3.6482,-3.6493,-3.6493,-3.6493,-3.6493,0,-3.6072,-3.6084,-3.6114,-3.6148,-3.6173,-3.6201,-3.6229,-3.6243,-3.6274,-3.6296,-3.6329,-3.6351,-3.6393,-3.6426,-3.646,-3.648,-3.6491,-3.6494,-3.6499,-3.6492,-3.6482,-3.6487,-3.6463,-3.6494,-3.6494,-3.6494,-3.6494,-3.6494,-3.6082,-3.6103,-3.6136,-3.6168,-3.6192,-3.6218,-3.624,-3.6263,-3.6291,-3.6328,-3.6342,-3.6375,-3.6406,-3.6453,-3.6472,-3.6498,-3.6499,-3.6506,-3.6507,-3.6508,-3.6507,-3.6477,-3.6504,-3.6505,-3.6505,-3.6505,-3.6505,0,-3.6104,-3.6126,-3.6155,-3.6194,-3.6219,-3.6228,-3.626,-3.6279,-3.6309,-3.6337,-3.6364,-3.6401,-3.6432,-3.6461,-3.6493,-3.6507,-3.6513,-3.6515,-3.6514,-3.6518,-3.6505,-3.6497,-3.6509,-3.6509,-3.6509,-3.6509,-3.6509,-3.6509,-3.6118,-3.6152,-3.6168,-3.6213,-3.6235,-3.6268,-3.6285,-3.6308,-3.6331,-3.6371,-3.6397,-3.6416,-3.6444,-3.6478,-3.6506,-3.6513,-3.6524,-3.6524,-3.6533,-3.652,-3.6519,-3.6518,-3.6511,-3.6526,-3.6526,-3.6544,-3.6544,-3.6544]},{"header":{"parameterUnit":"m.s-1","parameterCategory":1,"la1":30.2991,"la2":30.254,"lo1":-89.0895,"lo2":-89.0444,"dx":0.0017,"dy":0.0017,"nx":28,"ny":28,"refTime":"2022-12-12T03:00:00:Z","depth":0,"parameterNumber":3,"parameterNumberName":"V-component_of_WINDS"},"data":[0,0,0,0,0,0,0,0,0,0,0,0,0,0,0,0,0,0,0,0,0,0,0,0,0,0,0,0,0,0,0,0,0,0,0,0,0,0,0,0,0,0,0,0,0,0,0,0,0,0,0,0,0,0,0,0,0,0,3.2546,3.2548,0,3.2753,3.2756,3.2758,3.2836,3.2835,3.2835,3.2834,3.3041,3.3047,3.3053,0,0,0,0,0,0,0,0,0,0,0,0,0,3.2215,3.222,3.2545,3.2548,3.2551,3.2753,3.2756,3.2759,3.2836,3.2835,3.2835,3.2834,3.3039,3.3047,3.3054,0,0,0,0,0,0,0,0,0,0,0,0,0,3.2384,3.2222,3.2545,3.2614,3.2622,3.2752,3.2756,3.2759,3.2836,3.2835,3.2834,3.2834,3.3037,3.3046,3.3055,3.313,0,0,3.3083,3.3087,0,0,0,0,0,0,0,0,3.2374,3.2396,3.2601,3.2609,3.2619,3.2768,3.2715,3.2883,3.2837,3.2755,3.2834,3.2833,3.2951,3.2967,3.3008,3.314,3.3149,3.3084,3.3089,3.3093,3.3096,0,0,0,0,0,0,0,3.2362,3.2387,3.2627,3.2604,3.2615,3.2634,3.2657,3.2747,3.2855,3.2762,3.2768,3.2792,3.2955,3.2999,3.3013,3.3152,3.3083,3.3092,3.3097,3.3101,3.3362,3.3363,0,0,0,0,0,0,3.2339,3.2377,3.2621,3.2634,3.2492,3.2641,3.2666,3.2721,3.2855,3.2874,3.2792,3.2795,3.2984,3.3003,3.3021,3.3122,3.3093,3.3102,3.3107,3.336,3.3362,3.3363,0,0,0,0,0,0,3.2332,3.236,3.2612,3.2507,3.2541,3.2648,3.2708,3.2725,3.2769,3.2878,3.2897,3.2817,3.2984,3.3008,3.3104,3.313,3.3106,3.3114,3.3358,3.3361,3.3363,3.3321,0,0,0,0,0,0,3.2322,3.2357,3.2387,3.2507,3.2546,3.2692,3.2709,3.273,3.2785,3.279,3.2906,3.2924,3.2985,3.309,3.3113,3.3142,3.3121,3.3357,3.3359,3.3362,3.332,3.3321,3.3322,0,0,0,0,0,3.231,3.2364,3.2388,3.2417,3.2586,3.2694,3.2716,3.2786,3.2787,3.2818,3.2889,3.2921,3.3123,3.3099,3.3126,3.3158,3.3355,3.3359,3.3362,3.332,3.3321,3.3322,0,0,0,0,0,0,3.2241,3.2381,3.2409,3.2504,3.2587,3.2707,3.2747,3.2784,3.2866,3.2867,3.2949,3.2975,3.3065,3.3121,3.3092,3.324,3.3242,3.325,3.3201,3.3203,3.3203,3.3188,3.3129,0,0,0,0,0,3.2237,3.2314,3.2432,3.2504,3.2545,3.2639,3.2689,3.2736,3.2825,3.2859,3.2937,3.302,3.3103,3.3156,3.3238,3.3329,3.3357,3.3364,3.3365,3.3365,3.3372,3.3429,3.3434,3.3374,3.3374,3.3374,0,0,3.2229,3.2315,3.2358,3.2493,3.2563,3.2641,3.2668,3.2748,3.2807,3.2871,3.2968,3.3028,3.3127,3.3222,3.3268,3.3271,3.3395,3.3369,3.3369,3.3376,3.3433,3.3438,3.3443,3.3376,3.3376,3.3376,0,0,3.2255,3.2327,3.2398,3.2468,3.2575,3.2639,3.2655,3.2772,3.2815,3.2914,3.2965,3.3036,3.3176,3.3246,3.33,3.3359,3.3392,3.3383,3.3387,3.3441,3.3446,3.3451,3.3475,3.3482,3.3389,3.3389,3.3389,0,3.2231,3.2352,3.2428,3.2509,3.2568,3.2633,3.2706,3.277,3.2897,3.2936,3.2939,3.312,3.319,3.3305,3.332,3.336,3.3384,3.337,3.3439,3.3445,3.345,3.3474,3.3482,3.3387,3.3387,3.3387,3.3388,0,3.2319,3.2402,3.2446,3.2572,3.2636,3.2711,3.28,3.2856,3.2899,3.2962,3.3064,3.3152,3.3256,3.3286,3.3327,3.3408,3.3408,3.3424,3.3427,3.3453,3.3477,3.3487,3.3385,3.3385,3.3386,3.3386,0,0,3.2303,3.2475,3.249,3.255,3.2675,3.2741,3.2821,3.2925,3.2972,3.3058,3.3129,3.3249,3.3267,3.3328,3.3377,3.3425,3.3471,3.3436,3.344,3.3442,3.3569,3.3558,3.3567,3.3494,3.3496,3.3497,3.3562,0,3.2347,3.2495,3.2569,3.2685,3.2765,3.2831,3.2901,3.2985,3.3048,3.3125,3.3192,3.3278,3.3293,3.3331,3.3381,3.3454,3.3497,3.345,3.3561,3.3564,3.3536,3.3579,3.3565,3.3622,3.3571,3.3573,3.3574,0,3.2417,3.2508,3.2633,3.2754,3.2791,3.2852,3.2957,3.3029,3.3127,3.317,3.3241,3.3291,3.3379,3.3376,3.3499,3.3466,3.3516,3.3559,3.3563,3.3576,3.3571,3.3595,3.3641,3.3651,3.3589,3.3588,3.3587,0,3.2397,3.255,3.2646,3.2695,3.2838,3.2881,3.2942,3.304,3.3099,3.319,3.323,3.3328,3.3382,3.3457,3.3533,3.3523,3.365,3.3652,3.3689,3.3687,3.3712,3.371,3.3769,3.3741,3.3741,3.3741,3.3741,0,3.2439,3.2514,3.264,3.2699,3.2785,3.2871,3.2953,3.3019,3.3107,3.3181,3.3242,3.3309,3.3405,3.3485,3.3544,3.364,3.3662,3.37,3.3715,3.3696,3.3691,3.373,3.3728,3.3743,3.3743,3.3742,3.3742,0,3.2431,3.2518,3.2628,3.2756,3.279,3.2848,3.2958,3.3019,3.3086,3.3179,3.3205,3.331,3.3408,3.3492,3.3618,3.3659,3.3758,3.3775,3.3726,3.3734,3.3767,3.3764,3.3854,3.3871,3.383,3.383,3.383,0,3.2452,3.2512,3.2649,3.2704,3.2766,3.2853,3.2916,3.3003,3.3065,3.3186,3.3232,3.3335,3.3422,3.3575,3.3662,3.3761,3.3783,3.3808,3.3797,3.3778,3.3786,3.3783,3.3791,3.3808,3.3808,3.3808,3.3808,0,3.2482,3.2524,3.2613,3.2719,3.2794,3.288,3.2968,3.301,3.3114,3.3181,3.3284,3.3352,3.3486,3.3588,3.3698,3.376,3.3802,3.3811,3.3825,3.3806,3.3776,3.3796,3.3729,3.3808,3.3808,3.3808,3.3808,3.3808,3.2491,3.2549,3.2656,3.2755,3.2832,3.2915,3.298,3.3057,3.3145,3.3263,3.3309,3.3414,3.3516,3.3668,3.3732,3.3816,3.3822,3.3841,3.3846,3.385,3.3849,3.3762,3.3835,3.3836,3.3836,3.3836,3.3836,0,3.2526,3.26,3.269,3.2815,3.2894,3.293,3.3031,3.3094,3.3187,3.3279,3.3366,3.3486,3.3587,3.3684,3.379,3.3839,3.3861,3.3864,3.3862,3.3877,3.3836,3.3815,3.3845,3.3845,3.3845,3.3845,3.3845,3.3845,3.2554,3.2656,3.2712,3.2853,3.2927,3.3033,3.3088,3.3166,3.3241,3.3373,3.3459,3.3523,3.3619,3.3733,3.3828,3.3854,3.3891,3.3889,3.3921,3.3881,3.3879,3.3877,3.3857,3.3896,3.3896,3.3955,3.3956,3.3956]}]]